This is the latest recevied weather packets stored in our database for station/object F4THN-13. If no packets are shown the sender has not sent any weather packets the latest 10 day(s).
| Time | Temp. | Humidity | Pressure | Rain* | Wind** | Luminosity | Snow |
|---|---|---|---|---|---|---|---|
| 1777207275 | 21.11° C | 35% | 1019 hPa | 0 mm | - | - | - |
| 1777205774 | 21.67° C | 36% | 1019.1 hPa | 0 mm | - | - | - |
| 1777204275 | 20.56° C | 37% | 1019.2 hPa | 0 mm | - | - | - |
| 1777202774 | 20.56° C | 40% | 1019.4 hPa | 0 mm | - | - | - |
| 1777201274 | 20° C | 44% | 1019.6 hPa | 0 mm | - | - | - |
| 1777199774 | 19.44° C | 46% | 1019.8 hPa | 0 mm | - | - | - |
| 1777198274 | 18.33° C | 49% | 1020 hPa | 0 mm | - | - | - |
| 1777196774 | 17.22° C | 52% | 1020.1 hPa | 0 mm | - | - | - |
| 1777195274 | 16.11° C | 54% | 1020.2 hPa | 17.02 mm | - | - | - |
| 1777193773 | 15° C | 54% | 1020.5 hPa | 17.02 mm | - | - | - |
| 1777192273 | 14.44° C | 59% | 1020.3 hPa | 0 mm | - | - | - |
| 1777190773 | 13.33° C | 61% | 1020.3 hPa | 0 mm | - | - | - |
| 1777189273 | 12.22° C | 64% | 1020.1 hPa | 0 mm | - | - | - |
| 1777187773 | 11.67° C | 66% | 1020 hPa | 0 mm | - | - | - |
| 1777186273 | 10° C | 70% | 1019.9 hPa | 0 mm | - | - | - |
| 1777184772 | 8.89° C | 72% | 1020 hPa | 0 mm | - | - | - |
| 1777183272 | 7.78° C | 71% | 1019.7 hPa | 0 mm | - | - | - |
| 1777181772 | 7.22° C | 70% | 1019.4 hPa | 0 mm | - | - | - |
| 1777180272 | 7.22° C | 69% | 1019.2 hPa | 0 mm | - | - | - |
| 1777178772 | 7.22° C | 69% | 1019 hPa | 0 mm | - | - | - |
| 1777177272 | 7.78° C | 69% | 1018.8 hPa | 0 mm | - | - | - |
| 1777175771 | 7.78° C | 67% | 1018.9 hPa | 0 mm | - | - | - |
| 1777174271 | 8.33° C | 67% | 1018.9 hPa | 0 mm | - | - | - |
| 1777172771 | 8.33° C | 66% | 1018.8 hPa | 0 mm | - | - | - |
| 1777171271 | 8.33° C | 65% | 1018.8 hPa | 0 mm | - | - | - |
* Rain latest hour (hover to see other rain measurements)
** Current wind speed in m/s (hover to see current wind gust speed)